EHI
0 0 0 0 0 0 0 0 0 0 0 0 0 0 0 0 0 1 0 1 1 1 1 3 6 8 7 6 6 6 4 3 2 1 0 0 0 0 0 0 0 0 0 0
0 0 0 0 0 0 0 0 0 0 0 0 0 0 0 0 1 1 1 0 1 1 2 3 4 4 4 4 4 4 3 2 1 0 0 0 0 0 0 0 0 0 0 0
0 0 0 0 0 0 0 0 0 0 0 0 0 0 0 0 1 2 1 0 0 1 2 1 1 1 1 2 2 2 1 1 0 0 0 0 0 0 0 0 0 0 0 0
0 0 0 0 0 0 0 0 0 0 0 0 0 1 1 0 1 1 0 0 0 1 1 0 0 0 0 0 1 1 0 0 0 0 0 0 0 0 0 0 0 0 0 0
0 0 0 0 0 0 0 0 0 0 0 0 1 2 1 0 0 0 0 0 0 0 0 0 0 0 0 0 0 0 0 0 0 0 0 0 0 0 0 0 0 0 0 0
0 0 0 0 0 0 0 0 0 0 0 0 1 1 1 0 0 0 1 1 0 0 0 0 0 0 0 0 0 0 0 0 0 0 0 0 0 0 0 0 0 0 0 0
0 0 0 0 0 0 0 0 0 0 0 0 0 1 1 0 0 0 1 1 0 0 0 0 0 0 0 0 0 0 0 0 0 0 0 0 0 0 0 0 0 0 0 0
0 0 0 0 0 0 0 0 0 0 0 0 0 1 1 1 0 0 1 1 0 0 0 0 0 0 0 0 0 0 0 0 0 0 0 0 0 0 0 0 0 0 0 0
0 0 0 0 0 0 0 0 0 0 0 0 0 1 1 1 0 0 0 0 0 0 0 0 0 0 0 0 0 0 0 0 0 0 0 0 0 0 0 0 0 0 0 0
0 0 0 0 0 0 0 0 0 0 0 0 0 0 0 0 0 0 0 0 0 0 0 0 0 0 0 0 0 0 0 0 0 0 0 0 0 0 0 0 0 0 0 0
0 0 0 0 0 0 0 0 0 0 0 0 0 0 0 0 0 0 0 0 0 0 0 0 0 0 0 0 0 0 0 0 0 0 0 0 0 0 0 0 0 0 0 0
0 0 0 0 0 0 0 0 0 0 0 0 0 0 0 0 0 0 0 0 0 0 0 0 0 0 0 0 0 0 0 0 0 0 0 0 0 0 0 0 0 0 0 0
0 0 0 0 0 0 0 0 0 0 0 0 0 0 0 0 0 0 0 0 0 0 0 0 0 0 0 0 0 0 0 0 0 0 0 0 0 0 0 0 0 0 0 0
0 0 0 0 0 0 0 0 0 0 0 0 0 0 0 0 0 0 0 0 0 0 0 0 0 0 0 0 0 0 0 0 0 0 0 0 0 0 0 0 0 0 0 0
0 0 0 0 0 0 0 0 0 0 0 0 0 0 0 0 0 0 0 0 0 0 0 0 0 0 0 0 0 0 0 0 0 0 0 0 0 0 0 0 0 0 0 0
0 0 0 0 0 0 0 0 0 0 0 0 0 0 0 0 0 0 0 0 0 0 0 0 0 0 0 0 0 0 0 0 0 0 0 0 0 0 0 0 0 0 0 0
0 0 0 0 0 0 0 0 0 0 0 0 0 0 0 0 0 0 0 0 0 0 0 0 0 0 0 0 0 0 0 0 0 0 0 0 0 0 0 0 0 0 0 0
0 0 0 0 0 0 0 0 0 0 0 0 0 0 0 0 0 0 0 0 0 0 0 0 0 0 0 0 0 0 0 0 0 0 0 0 0 0 0 0 0 0 0 0
0 0 0 0 0 0 0 0 0 0 0 0 0 0 0 0 0 0 0 0 0 0 0 0 0 0 0 0 0 0 0 0 0 0 0 0 0 0 0 0 0 0 0 0
0 0 0 0 0 0 0 0 0 0 0 0 0 0 0 0 0 0 0 0 0 0 0 0 0 0 0 0 0 0 0 0 0 0 0 0 0 0 0 0 0 0 0 0
0 0 0 0 0 0 0 0 0 0 0 0 0 0 0 0 0 0 0 0 0 0 0 0 0 0 0 0 0 0 0 0 0 0 0 0 0 0 0 0 0 0 0 0
0 0 0 0 0 0 0 0 0 0 0 0 0 0 0 0 0 0 0 0 0 0 0 0 0 0 0 0 0 0 0 0 0 0 0 0 0 0 0 0 0 0 0 0
0 0 0 0 0 0 0 0 0 0 0 0 0 0 0 0 0 0 0 0 0 0 0 0 0 0 0 0 0 0 0 0 0 0 0 0 0 0 0 0 0 0 0 0
0 0 0 0 0 0 0 0 0 0 0 0 0 0 0 0 0 0 0 0 0 0 0 0 0 0 0 0 0 0 0 0 0 0 0 0 0 0 0 0 0 0 0 0
0 0 0 0 0 0 0 0 0 0 0 0 0 0 0 0 0 0 0 0 0 0 0 0 0 0 0 0 0 0 0 0 0 0 0 0 0 0 0 0 0 0 0 0
0 0 0 0 0 0 0 0 0 0 0 0 0 0 0 0 0 0 0 0 0 0 0 0 0 0 0 0 0 0 0 0 0 0 0 0 0 0 0 0 0 0 0 0
0 0 0 0 0 0 0 0 0 0 0 0 0 0 0 0 0 0 0 0 0 0 0 0 0 0 0 0 0 0 0 0 0 0 0 0 0 0 0 0 0 0 0 0
Wind_Speed
5 5 3 4 5 4 3 6 7 7 7 8 9 8 7 6 7 8 9 11 12 12 11 10 10 9 10 9 9 9 9 8 9 8 7 7 6 6 6 6 6 6 5 6
3 4 4 5 7 6 5 3 4 3 4 5 3 2 3 5 8 9 10 12 12 11 11 11 11 11 9 9 9 9 9 9 8 7 7 7 7 6 6 6 5 5 6 6
4 5 3 5 5 3 1 3 2 4 4 2 2 3 5 6 8 9 10 10 12 12 13 12 12 11 11 10 8 9 9 8 8 8 8 8 7 6 6 6 5 6 6 6
1 3 3 8 2 2 5 5 3 1 1 2 3 2 2 3 6 7 8 10 11 11 10 9 9 9 9 8 8 9 9 8 8 8 8 7 6 7 7 5 5 6 6 7
3 2 5 5 2 1 3 3 7 4 4 4 4 6 5 2 2 5 7 8 10 11 10 9 9 9 8 8 7 8 8 8 8 8 8 7 7 8 6 5 6 6 5 7
3 3 5 5 4 4 4 2 5 6 6 6 6 4 3 6 3 1 2 3 5 6 6 7 8 8 9 8 7 8 9 8 7 7 8 8 8 8 6 6 7 6 7 7
2 3 6 4 4 3 4 4 2 1 3 4 3 2 4 5 5 3 1 1 3 4 6 7 6 8 8 7 8 9 6 6 6 6 7 7 6 6 6 6 6 6 7 7
3 2 6 4 2 2 4 2 1 0 3 4 1 2 4 5 5 5 5 4 3 3 2 2 5 7 7 8 7 5 5 5 5 5 5 5 5 5 5 5 6 7 6 7
7 6 4 2 3 2 3 2 2 2 2 4 2 3 4 6 6 6 6 4 3 3 3 2 3 5 6 5 3 3 3 4 4 4 4 4 4 5 5 5 5 6 6 7
2 2 2 2 1 2 3 2 2 3 4 5 5 4 5 5 5 7 7 6 5 5 4 2 1 2 2 1 3 3 3 3 3 3 4 4 4 4 5 5 6 6 6 7
2 2 1 1 2 3 3 4 5 5 6 6 7 6 5 5 6 5 5 5 5 5 3 2 2 1 1 1 2 2 1 2 2 3 4 4 5 5 7 7 8 9 8 8
7 8 7 6 5 5 6 5 6 8 8 7 7 7 6 5 5 5 6 6 6 6 5 4 3 3 2 1 2 2 1 2 2 3 3 4 5 7 10 12 14 16 16 13
7 6 5 4 5 6 7 8 8 9 9 8 7 7 7 6 6 6 7 7 6 5 5 5 5 5 5 3 1 1 1 2 3 3 3 4 5 6 8 9 12 14 15 17
10 9 8 5 6 8 10 9 10 9 8 7 6 6 6 6 6 6 6 4 4 5 5 5 5 5 5 4 3 2 3 4 4 3 4 5 5 6 6 7 8 8 9 13
7 8 9 8 9 9 8 9 10 8 7 7 6 6 6 6 5 4 3 4 5 5 4 4 4 4 4 4 4 4 3 3 4 4 5 5 5 6 6 7 7 7 7 8
9 11 12 12 11 9 9 9 8 6 6 6 5 5 4 4 3 3 3 3 3 3 2 2 2 3 3 3 3 3 4 8 7 5 5 5 5 6 6 6 6 6 6 6
10 8 10 10 9 8 8 7 6 5 5 4 3 3 3 4 3 3 3 2 1 1 1 1 2 3 2 2 2 2 4 6 9 7 6 6 6 6 6 6 6 6 6 7
9 7 7 8 8 8 6 6 6 5 4 3 3 3 2 2 1 2 3 3 3 3 4 4 4 3 2 2 2 3 4 5 5 6 6 6 6 6 6 6 7 7 6 6
9 9 8 7 7 6 5 5 4 3 3 2 2 1 1 1 2 2 2 3 3 4 6 5 5 2 2 3 4 3 4 6 6 6 6 8 7 5 5 5 6 6 6 5
8 7 7 7 6 6 4 3 3 2 2 2 2 1 2 3 3 3 3 3 4 5 5 5 3 3 3 5 5 3 4 5 6 6 6 5 5 5 5 5 6 6 5 5
7 7 7 5 4 4 3 2 2 2 4 3 2 3 4 5 5 4 3 4 6 5 4 5 3 3 3 4 5 3 4 4 5 5 5 5 6 6 6 6 6 6 6 5
5 4 4 3 3 2 2 2 2 4 4 4 4 4 4 5 5 5 4 4 5 5 3 3 3 4 4 4 3 3 4 4 4 5 5 5 6 6 6 6 6 6 5 4
2 2 2 2 1 2 3 4 5 4 5 5 5 5 5 5 4 3 4 4 3 4 3 3 4 6 6 3 3 3 4 4 5 5 5 5 5 5 6 7 7 6 5 3
2 2 2 3 3 3 5 6 5 4 5 5 5 5 3 2 3 2 2 3 4 3 2 3 5 6 5 2 2 3 3 4 5 5 5 5 5 5 6 6 6 6 5 4
3 4 4 4 4 4 5 5 5 5 5 4 4 4 2 1 1 1 2 3 4 4 2 4 5 5 3 2 2 3 3 4 4 5 5 5 6 6 6 6 5 5 5 5
3 3 3 3 2 2 2 2 2 2 2 3 3 3 3 2 2 2 2 3 4 4 3 2 3 3 3 3 3 4 3 4 5 5 6 6 6 6 5 6 7 6 5 5
4 3 3 3 3 2 2 1 2 2 2 1 2 3 3 2 2 2 3 3 3 3 2 2 2 3 3 3 3 4 4 4 4 5 5 5 5 5 6 7 6 6 5 6
Wind_Direction
231 237 218 245 270 258 210 201 196 232 227 235 223 213 204 189 175 164 167 169 173 176 176 175 175 177 179 182 180 173 172 182 194 197 196 198 201 208 213 216 221 221 225 232
299 283 281 278 278 282 286 255 231 235 253 261 216 165 165 163 160 164 171 177 178 175 174 178 180 181 181 183 180 171 176 189 192 190 193 199 205 210 214 220 225 221 226 232
278 300 351 293 263 245 306 345 159 178 235 306 67 156 186 183 174 177 178 177 178 181 182 183 183 180 184 184 175 173 182 188 188 190 197 205 207 207 214 219 219 224 233 234
254 13 258 250 284 111 99 37 17 136 227 151 153 207 172 165 173 186 183 180 185 187 188 188 183 181 179 171 171 178 186 193 194 193 202 207 205 211 217 215 217 226 233 236
149 207 266 287 328 20 113 31 355 15 24 12 43 44 17 342 171 180 185 187 190 191 186 182 182 179 165 169 173 181 194 200 200 197 202 204 210 218 218 215 224 227 233 236
147 178 231 257 308 322 102 54 345 14 22 8 48 63 299 309 318 81 139 176 187 180 166 174 185 167 163 174 178 196 203 204 202 198 202 208 215 218 217 216 226 231 239 238
162 214 255 274 305 23 118 218 258 34 55 43 61 187 277 323 348 1 27 118 147 150 166 186 174 158 169 177 198 208 200 197 200 203 207 212 216 220 221 226 235 239 246 248
146 197 253 296 356 137 200 207 208 122 91 90 83 15 17 16 13 6 17 35 81 127 158 157 152 159 173 198 210 194 184 194 206 211 215 216 218 230 230 228 239 247 252 261
181 209 245 255 197 179 144 171 217 174 132 121 90 45 38 31 21 21 34 36 58 100 96 81 128 154 182 216 186 166 180 205 216 218 222 219 216 229 237 233 237 250 249 256
163 242 250 275 87 114 144 180 175 138 117 104 96 75 57 44 31 31 34 36 44 64 70 52 78 163 196 183 152 158 192 221 226 225 239 242 237 232 235 239 243 247 248 252
162 185 131 288 222 158 126 112 93 85 90 96 94 77 67 57 44 38 38 41 51 59 59 34 36 30 20 80 133 158 209 236 247 246 248 257 257 248 245 242 238 239 245 242
193 192 169 199 206 163 128 124 114 100 82 73 82 80 67 53 43 46 43 41 43 41 39 32 36 23 360 9 114 136 244 266 260 260 265 266 273 282 265 258 260 250 247 246
152 151 140 145 136 125 115 109 103 94 89 79 68 72 70 59 48 48 43 41 42 40 37 35 35 18 355 352 36 70 275 278 278 274 274 275 276 278 288 289 277 266 258 255
122 119 107 110 115 115 111 106 95 84 79 78 72 65 64 59 51 48 43 37 43 45 42 41 39 16 351 358 10 349 321 302 296 283 277 274 274 275 275 281 290 288 274 262
101 107 116 108 97 96 98 94 86 77 70 61 56 55 57 57 51 39 30 34 43 40 33 34 29 354 341 1 9 349 330 308 296 286 281 279 280 282 281 279 278 280 285 285
105 100 103 100 98 94 90 88 87 80 73 64 58 55 56 61 52 28 20 35 48 30 4 15 348 312 326 357 359 339 319 312 312 301 294 290 288 289 286 283 282 280 278 276
96 96 104 103 99 93 90 92 92 89 77 65 60 58 50 43 31 9 348 347 10 285 269 268 283 295 320 349 349 319 310 308 310 309 296 288 287 285 283 283 283 278 273 269
95 100 105 108 106 97 88 83 82 77 68 48 46 38 28 27 353 308 305 320 329 318 294 270 267 281 316 332 321 305 303 301 301 300 299 296 293 286 285 288 289 285 285 286
100 99 95 94 96 95 90 82 77 68 47 29 15 339 295 264 263 274 286 317 314 295 285 274 269 281 299 294 304 294 301 305 306 305 304 302 303 299 299 299 296 295 296 295
85 85 85 81 77 82 84 76 64 30 347 337 322 310 300 282 275 277 286 287 265 253 261 267 263 266 270 284 301 293 301 305 306 308 311 309 306 305 305 303 300 297 290 280
67 66 69 70 65 66 67 55 26 330 313 313 287 254 258 269 275 277 283 287 281 275 272 274 266 262 270 283 298 297 303 308 309 310 313 315 312 310 309 308 307 302 295 289
57 59 58 55 47 17 345 335 313 302 302 298 284 269 273 282 287 288 272 252 264 276 273 272 270 272 279 286 288 297 304 308 309 312 313 313 312 309 309 310 309 306 302 298
42 39 29 7 327 297 308 309 300 293 287 280 274 272 270 269 263 258 278 281 280 281 274 267 278 297 307 301 296 302 309 313 315 315 312 310 311 313 315 315 311 306 305 308
336 320 302 297 310 316 304 294 295 290 283 281 277 273 266 278 300 287 252 285 301 296 278 286 299 314 324 321 317 320 320 320 320 319 321 323 323 323 324 324 322 324 328 339
299 298 301 309 306 288 277 287 306 314 317 317 318 318 313 260 245 282 302 319 334 339 325 325 336 343 352 351 348 338 331 329 331 331 333 331 328 327 329 330 334 341 352 1
307 299 291 282 273 279 297 323 326 319 330 339 332 330 338 346 358 359 354 354 355 357 357 355 1 7 8 2 352 345 345 344 344 343 338 333 330 332 337 344 351 359 2 5
341 340 340 342 334 331 335 334 319 313 313 321 314 315 325 343 358 2 4 358 358 7 10 8 8 9 4 3 4 4 1 355 350 348 344 341 342 344 348 353 357 1 4 9